STARLINK-36078

Last updated on Fri Dec 19 2025 00:02:10 GMT+0000 (Coordinated Universal Time)

1 67050U 25294W 25351.83335648 -.01398096 58314-3 -32060-2 0 9991 2 67050 43.0003 151.2459 0001689 276.0563 154.4712 15.96482561 2126
UTC large
Height (km)
Speed (km/s)
/
Latitude / Longitude
Inclination (degrees)
Orbital Period (minutes)
Azimuth
Elevation
Range (km)
Doppler Factor

Next 0 passes for location: London (51.5072 / 0.1276)

Sorry there are no passes over London.